TimeCST,TemperatureF,Dew PointF,Humidity,Sea Level PressureIn,VisibilityMPH,Wind Direction,Wind SpeedMPH,Gust SpeedMPH,PrecipitationIn,Events,Conditions,WindDirDegrees,DateUTC
12:15 AM,46.4,35.6,66,29.54,10.0,SSE,8.1,-,N/A,,Clear,150,2013-03-04 06:15:00
12:35 AM,44.6,35.6,71,29.53,10.0,SE,9.2,-,N/A,,Clear,140,2013-03-04 06:35:00
12:55 AM,44.6,35.6,71,29.52,10.0,SE,8.1,-,N/A,,Clear,140,2013-03-04 06:55:00
1:15 AM,42.8,35.6,76,29.53,10.0,SE,4.6,-,N/A,,Clear,140,2013-03-04 07:15:00
1:35 AM,42.8,35.6,76,29.52,10.0,SE,6.9,-,N/A,,Clear,140,2013-03-04 07:35:00
1:55 AM,42.8,35.6,76,29.51,10.0,ESE,5.8,-,N/A,,Clear,110,2013-03-04 07:55:00
2:15 AM,41.0,35.6,81,29.51,10.0,ESE,6.9,-,N/A,,Clear,110,2013-03-04 08:15:00
2:35 AM,42.8,35.6,76,29.51,10.0,ESE,8.1,-,N/A,,Clear,120,2013-03-04 08:35:00
2:55 AM,42.8,35.6,76,29.50,10.0,East,5.8,-,N/A,,Clear,100,2013-03-04 08:55:00
3:15 AM,42.8,35.6,76,29.50,10.0,ESE,5.8,-,N/A,,Clear,110,2013-03-04 09:15:00
3:35 AM,42.8,35.6,76,29.50,10.0,East,5.8,-,N/A,,Clear,100,2013-03-04 09:35:00
3:55 AM,42.8,35.6,76,29.50,10.0,East,5.8,-,N/A,,Clear,90,2013-03-04 09:55:00
4:15 AM,41.0,33.8,76,29.50,10.0,ESE,6.9,-,N/A,,Clear,120,2013-03-04 10:15:00
4:35 AM,42.8,33.8,70,29.49,10.0,ESE,8.1,-,N/A,,Clear,110,2013-03-04 10:35:00
4:55 AM,42.8,33.8,70,29.49,10.0,East,5.8,-,N/A,,Clear,100,2013-03-04 10:55:00
6:17 AM,37.4,33.8,87,29.53,10.0,North,9.2,-,N/A,,Mostly Cloudy,350,2013-03-04 12:17:00
6:55 AM,37.4,33.8,87,29.54,10.0,North,11.5,-,N/A,,Scattered Clouds,350,2013-03-04 12:55:00
7:50 AM,41.0,37.4,87,29.57,10.0,NNW,11.5,20.7,N/A,,Scattered Clouds,330,2013-03-04 13:50:00
8:50 AM,44.6,37.4,76,29.60,10.0,NNW,11.5,20.7,N/A,,Scattered Clouds,330,2013-03-04 14:50:00
9:50 AM,50.0,41.0,71,29.62,10.0,NNW,17.3,-,N/A,,Partly Cloudy,330,2013-03-04 15:50:00
10:55 AM,59.0,42.8,55,29.62,10.0,NNW,17.3,23.0,N/A,,Partly Cloudy,330,2013-03-04 16:55:00
11:50 AM,60.8,42.8,52,29.62,10.0,North,17.3,27.6,N/A,,Partly Cloudy,360,2013-03-04 17:50:00
12:50 PM,60.8,42.8,52,29.63,10.0,NNW,24.2,27.6,N/A,,Partly Cloudy,340,2013-03-04 18:50:00
1:50 PM,59.0,42.8,55,29.64,10.0,NNW,21.9,-,N/A,,Clear,340,2013-03-04 19:50:00
5:50 PM,48.2,41.0,76,29.74,10.0,North,24.2,31.1,N/A,,Clear,350,2013-03-04 23:50:00
6:50 PM,44.6,39.2,81,29.79,7.0,NNW,23.0,28.8,N/A,,Mostly Cloudy,340,2013-03-05 00:50:00
7:50 PM,44.6,37.4,76,29.86,10.0,NNW,27.6,34.5,N/A,,Mostly Cloudy,340,2013-03-05 01:50:00
8:35 PM,42.8,35.6,76,29.89,10.0,North,26.5,33.4,N/A,,Clear,350,2013-03-05 02:35:00
8:50 PM,42.8,35.6,76,29.94,10.0,NNW,31.1,36.8,N/A,,Scattered Clouds,340,2013-03-05 02:50:00
8:55 PM,42.8,35.6,76,29.92,10.0,North,29.9,35.7,N/A,,Clear,350,2013-03-05 02:55:00
9:15 PM,42.8,35.6,76,29.95,10.0,North,33.4,42.6,N/A,,Clear,360,2013-03-05 03:15:00
9:35 PM,42.8,35.6,76,29.97,10.0,North,28.8,39.1,N/A,,Scattered Clouds,360,2013-03-05 03:35:00
9:55 PM,42.8,35.6,76,29.98,10.0,North,28.8,36.8,N/A,,Mostly Cloudy,360,2013-03-05 03:55:00
10:15 PM,42.8,35.6,76,29.98,10.0,North,27.6,42.6,N/A,,Mostly Cloudy,360,2013-03-05 04:15:00
10:35 PM,41.0,35.6,81,30.02,10.0,North,24.2,35.7,N/A,,Light Drizzle,350,2013-03-05 04:35:00
10:55 PM,41.0,35.6,81,30.03,10.0,North,27.6,33.4,N/A,,Mostly Cloudy,360,2013-03-05 04:55:00
11:15 PM,41.0,35.6,81,30.04,10.0,North,29.9,36.8,N/A,,Overcast,360,2013-03-05 05:15:00
11:35 PM,41.0,35.6,81,30.05,10.0,North,29.9,39.1,N/A,,Mostly Cloudy,360,2013-03-05 05:35:00
11:55 PM,41.0,33.8,76,30.06,10.0,North,25.3,35.7,N/A,Rain,Light Rain,360,2013-03-05 05:55:00